649  
ASUS42 KMHX 200722  
RWRMHX  
WEATHER ROUNDUP FOR EASTERN NORTH CAROLINA  
NATIONAL WEATHER SERVICE NEWPORT/MOREHEAD CITY NC  
300 AM EDT SAT SEP 20 2014  
 
NOTE: "FAIR" INDICATES FEW OR NO CLOUDS BELOW 12,000 FEET  
WITH NO SIGNIFICANT WEATHER AND/OR S TO VISIBILITY
 
 
NCZ015>017-031-032-045>047-102-103-200800-  
NORTH COAST  
 
CITY SKY/WX TMP DP RH WIND PRES REMARKS
 
EDENTON CLEAR 59 58 96 N5 30.20F  
ELIZABETH CITY CLEAR 65 61 87 N6 30.21F  
KITTY HAWK MOSUNNY 72 63 73 NE7 30.17F  
MANTEO PTCLDY 71 63 75 NE12G18 30.18F  
 

 
 
NCZ045>047-081-094-103-104-200800-  
CENTRAL COAST  
 
CITY SKY/WX TMP DP RH WIND PRES REMARKS
 
FRISCO MOCLDY 71 65 81 NE10G17 30.15F  
SWANQUARTER N/A 68 N/A N/A N9 30.12F  
 

 
 
NCZ095-097-098-100-101-200800-  
SOUTHERN COAST  
 
CITY SKY/WX TMP DP RH WIND PRES REMARKS
 
BEAUFORT CLOUDY 72 64 76 NE8G18 30.14F  
CEDAR ISLAND N/A 73 N/A N/A N16G26 30.18S  
JACKSONVILLE MOCLDY 65 60 84 N7 30.15F  
NEWPORT NOT AVBL  
PINEY ISLAND PTSUNNY 75 64 68 NE16 30.14F  
WILMINGTON CLOUDY 66 62 87 NE9 30.14F  
 

 
 
NCZ011>013-027>030-043-044-078>080-089-090>093-098-200800-  
COASTAL PLAIN  
 
CITY SKY/WX TMP DP RH WIND PRES REMARKS
 
AHOSKIE CLEAR 58 55 91 CALM 30.22S  
CLINTON CLEAR 63 60 91 NE3 30.19S  
ELIZABETHTOWN PTCLDY 62 60 93 CALM 30.17S  
GOLDSBORO CLEAR 63 62 98 CALM 30.17F  
GREENVILLE PTCLDY 61 59 94 N5 30.20F  
HAVELOCK CLOUDY 71 62 73 NE10 30.17F  
KENANSVILLE PTCLDY 63 57 82 N3 30.19S  
KINSTON PTCLDY 61 59 92 NW3 30.19S  
NEW BERN MOCLDY 67 60 78 NE7 30.18F  
RICHLANDS PTCLDY 63 57 82 N7 30.17S  
ROANOKE RAPIDS NOT AVBL  
ROCKY MOUNT CLEAR 60 57 89 N5 30.21F  
WASHINGTON PTCLDY 61 59 93 NE6 30.19S  
WHITEVILLE MOCLDY 65 60 83 NE5 30.14F  
 

 
 
AMZ130-135-150-152-154-156-158-170-250-252-270-ANZ085-086-088-633-658-670-200800-  
MARINE OBSERVATIONS  
 
STATION/POSITION TIME TEMP WIND PRES WAVE SWELL
 
AIR SEA DIR/SP/G HT/PER HT/PER  
(UTC) (F) (DEG/KT/KT) (MB) (FT/S) (FT/S)  
CHESAPEAKE LIGHT 0700 72 70/ 18/ 19 1023.7  
BUOY 44014 0700 73 75 50/ 19/ 23 1022.0 5/ 8 2/ 8  
DUCK 0700 73 74 40/ 18/ 19 1021.7  
2E DUCK 0700 N/A 5/ 6  
OREGON INLET 0700 72 74 30/ 14/ 21 1021.6  
BUOY 44095 0700 75 N/A 6/ 6 2/11  
20E OREGON INLET NOT AVBL  
HATTERAS CG 0700 73 74 30/ 14/ 19 1021.1  
DIAMOND BUOY 0700 77 60/ 16/ 17 1019.9 6/ 7 3/ 9  
CAPE LOOKOUT 0700 74 30/ 21/ 23 1020.1  
BEAUFORT LAB 0700 72 76 30/ 9/ 11 1020.0  
30 SE NEW RIVER 0700 79 82 70/ 17/ 21 1019.7 6/ 7  
5 SE WRIGHTSVILL 0700 73 80 70/ 19/ 23 N/A  
BUOY 41002 0619 74 82 100/ 16/ 19 1017.1 8/ 8 3/13  
BUOY 41004 0700 75 82 100/ 21/ 25 1016.4 7/ 8 5/ 8  
 

 
 
CLICK HERE TO GO TO PREVIOUS BULLETINS.

The Nexlab NC Page Main Text Page